Alma, GA

7:06 AM EST on November 24, 2017 (GMT -0500)
Bacon County

Weather History for KAMG - September, 2013

Change the Weather History Date:

Monday, September 2, 2013

  Actual Average Record
Temperature  
Mean Temperature 83 °F 80 °F  
Max Temperature 93 °F 89 °F 98 °F (1957)
Min Temperature 73 °F 70 °F 57 °F (1999)
Degree Days  
Heating Degree Days 0 0  
Month to date heating degree days 0 0  
Since 1 July heating degree days 0 0  
Cooling Degree Days 18 15  
Month to date cooling degree days 36 30  
Year to date cooling degree days 1813 1937  
Growing Degree Days 32 (Base 50)    
Moisture  
Dew Point 73 °F    
Average Humidity 78    
Maximum Humidity 100    
Minimum Humidity 56    
Precipitation  
Precipitation 0.68 in 0.14 in 3.26 in (2016)
Month to date precipitation 0.68 0.28  
Year to date precipitation 43.55 34.49  
Snow  
Snow 0.00 in 0.00 in 0.00 in ()
Month to date snowfall 0.0 0.0  
Since 1 July snowfall 0.0 0.0  
Since 1 September snowfall 0.0 0.0  
Snow Depth 0.00 in    
Sea Level Pressure  
Sea Level Pressure 29.93 in    
Wind  
Wind Speed 4 mph (WSW)    
Max Wind Speed 25 mph    
Max Gust Speed 32 mph    
Visibility 7 miles    
Events Fog , Rain , Thunderstorm    
T = Trace of Precipitation, MM = Missing Value Source: NWS Daily Summary

Daily Weather History Graph

Daily Weather History Graph

Search for Another Location

Airport or City:

Trip Planner

Search our weather history database for the weather conditions in past years. The results will help you decide how hot, cold, wet, or windy it might be!

Date:

Astronomy

Sep. 02, 2013 Rise Set
Actual Time 7:06 AM EDT 7:52 PM EDT
Civil Twilight 6:41 AM EDT 8:16 PM EDT
Nautical Twilight 6:12 AM EDT 8:45 PM EDT
Astronomical Twilight 5:42 AM EDT 9:15 PM EDT
Moon 4:28 AM EDT (9/2) 6:00 PM EDT (9/2)
Length of Visible Light 13h 35m
Length of Day
12h 45m
Waning Crescent, 8% of the Moon is Illuminated
Sep 2
Waning Crescent
Sep 5
New
Sep 12
First Quarter
Sep 19
Full
Sep 26
Last Quarter

Hourly Weather History & Observations

Time (EDT) Temp. Heat Index Dew Point Humidity Pressure Visibility Wind Dir Wind Speed Gust Speed Precip Events Conditions
12:53 AM 75.9 °F - 73.0 °F 91% 29.94 in 10.0 mi Calm Calm - N/A   Clear
1:53 AM 75.0 °F - 73.0 °F 94% 29.93 in 10.0 mi Calm Calm - N/A   Clear
2:53 AM 75.0 °F - 73.0 °F 94% 29.92 in 9.0 mi SSW 3.5 mph - N/A   Clear
3:53 AM 73.9 °F - 73.0 °F 97% 29.92 in 9.0 mi SW 3.5 mph - N/A   Clear
4:53 AM 75.0 °F - 73.9 °F 96% 29.91 in 8.0 mi West 3.5 mph - N/A   Clear
5:53 AM 73.9 °F - 73.9 °F 100% 29.91 in 6.0 mi South 4.6 mph - N/A   Clear
6:31 AM 73.4 °F - 73.4 °F 100% 29.93 in 5.0 mi South 3.5 mph - N/A   Scattered Clouds
6:53 AM 73.0 °F - 73.0 °F 100% 29.93 in 5.0 mi Calm Calm - N/A   Scattered Clouds
7:08 AM 73.4 °F - 73.4 °F 100% 29.94 in 5.0 mi Calm Calm - N/A   Mostly Cloudy
7:17 AM 73.4 °F - 73.4 °F 100% 29.94 in 4.0 mi Calm Calm - N/A   Scattered Clouds
7:53 AM 73.9 °F - 73.9 °F 100% 29.95 in 4.0 mi South 3.5 mph - N/A   Scattered Clouds
8:32 AM 75.2 °F - 75.2 °F 100% 29.97 in 5.0 mi SSW 4.6 mph - N/A   Mostly Cloudy
8:53 AM 75.9 °F - 75.0 °F 97% 29.96 in 5.0 mi SW 6.9 mph - N/A   Overcast
9:53 AM 78.1 °F - 75.9 °F 93% 29.98 in 4.0 mi WSW 8.1 mph - N/A   Overcast
10:13 AM 78.8 °F - 75.2 °F 89% 29.99 in 4.0 mi WSW 8.1 mph - N/A   Overcast
10:53 AM 82.0 °F 89.4 °F 75.9 °F 82% 29.99 in 5.0 mi Variable 4.6 mph - N/A   Haze
11:19 AM 82.4 °F 89.5 °F 75.2 °F 79% 29.99 in 5.0 mi West 6.9 mph - N/A   Haze
11:53 AM 84.0 °F 91.9 °F 75.0 °F 74% 29.99 in 6.0 mi WSW 9.2 mph - N/A   Haze
12:42 PM 87.8 °F 97.6 °F 75.2 °F 66% 29.98 in 7.0 mi WSW 6.9 mph - N/A   Mostly Cloudy
12:53 PM 87.1 °F 96.3 °F 75.0 °F 67% 29.97 in 7.0 mi Calm Calm - N/A   Scattered Clouds
1:53 PM 89.1 °F 98.0 °F 73.9 °F 61% 29.94 in 8.0 mi Variable 4.6 mph - N/A   Scattered Clouds
2:53 PM 91.0 °F 100.4 °F 73.9 °F 57% 29.91 in 8.0 mi WSW 6.9 mph - N/A   Partly Cloudy
3:53 PM 90.0 °F 97.9 °F 73.0 °F 57% 29.88 in 9.0 mi West 4.6 mph - N/A   Clear
4:53 PM 90.0 °F 96.9 °F 72.0 °F 55% 29.87 in 9.0 mi SW 5.8 mph - N/A   Partly Cloudy
5:53 PM 91.0 °F 99.3 °F 73.0 °F 55% 29.88 in 9.0 mi WSW 6.9 mph - N/A   Clear
6:53 PM 88.0 °F 95.6 °F 73.0 °F 61% 29.88 in 8.0 mi WSW 3.5 mph - N/A   Partly Cloudy
7:14 PM 86.0 °F 93.4 °F 73.4 °F 66% 29.90 in 8.0 mi West 19.6 mph 32.2 mph N/A Thunderstorm Thunderstorm
7:23 PM 77.0 °F - 69.8 °F 78% 29.93 in 0.8 mi West 18.4 mph 31.1 mph 0.16 in Rain , Thunderstorm Heavy Thunderstorms and Rain
7:30 PM 73.4 °F - 69.8 °F 88% 29.92 in 0.2 mi WNW 16.1 mph 29.9 mph 0.52 in Fog , Rain , Thunderstorm Heavy Thunderstorms and Rain
7:39 PM 75.2 °F - 71.6 °F 89% 29.89 in 0.5 mi West 8.1 mph 21.9 mph 0.68 in Fog , Rain , Thunderstorm Thunderstorms and Rain
7:44 PM 75.2 °F - 73.4 °F 94% 29.88 in 3.0 mi WNW 3.5 mph - 0.68 in Rain , Thunderstorm Light Thunderstorms and Rain
7:53 PM 75.0 °F - 72.0 °F 90% 29.88 in 10.0 mi West 5.8 mph - 0.68 in Thunderstorm Thunderstorm
8:28 PM 73.4 °F - 71.6 °F 94% 29.91 in 10.0 mi SSW 4.6 mph - N/A   Clear
8:53 PM 73.9 °F - 72.0 °F 93% 29.92 in 10.0 mi SSW 3.5 mph - N/A   Clear
9:53 PM 73.9 °F - 73.0 °F 97% 29.94 in 9.0 mi Calm Calm - N/A   Mostly Cloudy
10:53 PM 73.9 °F - 73.0 °F 97% 29.94 in 9.0 mi Calm Calm - N/A   Partly Cloudy
11:53 PM 73.0 °F - 72.0 °F 96% 29.93 in 10.0 mi Calm Calm - N/A   Clear